TimeCDT,TemperatureF,Dew PointF,Humidity,Sea Level PressureIn,VisibilityMPH,Wind Direction,Wind SpeedMPH,Gust SpeedMPH,PrecipitationIn,Events,Conditions,WindDirDegrees,DateUTC
12:54 AM,80.1,72.0,76,30.04,10.0,South,9.2,-,N/A,,Partly Cloudy,190,2013-06-25 05:54:00
1:54 AM,79.0,72.0,79,30.03,10.0,SSW,9.2,-,N/A,,Clear,200,2013-06-25 06:54:00
2:54 AM,78.1,71.1,79,30.03,10.0,SSW,9.2,-,N/A,,Clear,210,2013-06-25 07:54:00
3:54 AM,78.1,71.1,79,30.03,10.0,SW,6.9,-,N/A,,Partly Cloudy,220,2013-06-25 08:54:00
4:54 AM,77.0,71.1,82,30.03,10.0,SSW,6.9,-,N/A,,Partly Cloudy,210,2013-06-25 09:54:00
5:54 AM,75.9,71.1,85,30.04,10.0,South,5.8,-,N/A,,Partly Cloudy,180,2013-06-25 10:54:00
6:54 AM,77.0,71.1,82,30.05,10.0,SSE,6.9,-,N/A,,Scattered Clouds,160,2013-06-25 11:54:00
7:54 AM,80.1,72.0,76,30.06,10.0,South,9.2,-,N/A,,Mostly Cloudy,190,2013-06-25 12:54:00
8:54 AM,82.0,73.0,74,30.07,10.0,SW,10.4,23.0,N/A,,Mostly Cloudy,220,2013-06-25 13:54:00
9:54 AM,84.0,73.0,69,30.06,10.0,SSW,12.7,19.6,N/A,,Scattered Clouds,210,2013-06-25 14:54:00
10:30 AM,84.2,73.4,70,30.07,10.0,SW,11.5,21.9,N/A,,Mostly Cloudy,220,2013-06-25 15:30:00
10:54 AM,86.0,73.0,65,30.05,10.0,SW,15.0,26.5,N/A,,Mostly Cloudy,220,2013-06-25 15:54:00
11:45 AM,87.8,71.6,58,30.06,10.0,SW,13.8,20.7,N/A,,Mostly Cloudy,230,2013-06-25 16:45:00
11:54 AM,88.0,72.0,59,30.05,10.0,SW,10.4,-,N/A,,Mostly Cloudy,220,2013-06-25 16:54:00
12:47 PM,89.6,71.6,55,30.06,10.0,SSW,8.1,-,N/A,,Scattered Clouds,200,2013-06-25 17:47:00
12:54 PM,89.1,71.1,55,30.05,10.0,SW,9.2,-,N/A,,Scattered Clouds,230,2013-06-25 17:54:00
1:54 PM,91.0,68.0,47,30.04,10.0,South,12.7,-,N/A,,Scattered Clouds,190,2013-06-25 18:54:00
2:54 PM,91.0,66.9,45,30.02,10.0,Variable,6.9,-,N/A,,Scattered Clouds,0,2013-06-25 19:54:00
3:54 PM,91.9,64.9,41,30.00,10.0,South,13.8,19.6,N/A,,Scattered Clouds,190,2013-06-25 20:54:00
4:54 PM,91.0,66.0,44,29.98,10.0,SSW,10.4,-,N/A,,Scattered Clouds,200,2013-06-25 21:54:00
5:54 PM,91.0,66.9,45,29.95,10.0,SSW,11.5,-,N/A,,Mostly Cloudy,200,2013-06-25 22:54:00
6:54 PM,88.0,64.9,46,29.94,10.0,South,13.8,-,N/A,,Overcast,190,2013-06-25 23:54:00
7:54 PM,86.0,66.0,51,29.94,10.0,South,9.2,-,N/A,,Overcast,190,2013-06-26 00:54:00
8:54 PM,84.0,68.0,58,29.94,10.0,South,10.4,-,N/A,,Overcast,180,2013-06-26 01:54:00
9:54 PM,82.9,68.0,60,29.94,10.0,South,10.4,-,N/A,,Overcast,180,2013-06-26 02:54:00
10:54 PM,82.9,68.0,60,29.94,10.0,SSW,11.5,-,N/A,,Overcast,200,2013-06-26 03:54:00
11:54 PM,82.0,69.1,65,29.94,10.0,SSW,11.5,17.3,N/A,,Overcast,210,2013-06-26 04:54:00